Location: Bacharowice
(49.9333°N, 19.5833°E)
Time: 08:37:08
(UTC+00:00)

Cosmos 1908 Rocket - Pass Details

Date: 05 October 2021
Orbit: 605 x 633 km, 82.5° (Epoch: 27 October)

Event Time Altitude Azimuth Distance (km) Brightness Sun altitude
Rises 03:41:23 0° 345° (NNW) 2,895 6.9 -11.5°
Reaches altitude 10° 03:43:41 10° 340° (NNW) 1,981 6.0 -11.1°
Maximum altitude 03:47:54 48° 266° (W) 797 3.7 -10.5°
Drops below altitude 10° 03:52:03 10° 192° (SSW) 1,953 6.0 -9.8°
Sets 03:54:17 0° 187° (S) 2,850 6.9 -9.4°
